FW9813 Weather Reports


Display with metric or nautical units.
time (UTC)temp
F
wind
direction
speed
MPH
gust
MPH
rain 1hr
in
rain 24hr
in
rain mn
in
humidity
%
barometer
mb
20260906183050 79 0 0.0 4.0 0.00 0.00 0.00 71 1018.2
20260906181619 79 74 1.0 5.0 0.00 0.00 0.00 70 1018.4
20260906180100 79 86 1.0 5.0 0.00 0.00 0.00 70 1018.2
20260906174552 80 0 1.0 4.0 0.00 0.00 0.00 70 1018.1
20260906173048 80 291 1.0 4.0 0.00 0.00 0.00 71 1018.2
20260906171602 79 51 1.0 3.0 0.00 0.00 0.00 71 1018.2
20260906170048 79 56 1.0 4.0 0.00 0.00 0.00 71 1018.5
20260906164548 79 352 0.0 3.0 0.00 0.00 0.00 72 1018.6
20260906163047 78 45 1.0 5.0 0.00 0.00 0.00 73 1018.8
20260906161557 78 28 0.0 4.0 0.00 0.00 0.00 75 1018.8
20260906160055 77 49 0.0 3.0 0.00 0.00 0.00 74 1018.8
20260906154548 77 45 1.0 3.0 0.00 0.00 0.00 75 1018.9
20260906153048 77 352 1.0 4.0 0.00 0.00 0.00 75 1018.9
20260906151558 76 28 0.0 3.0 0.00 0.00 0.00 77 1019.2
20260906150053 75 0 1.0 3.0 0.00 0.00 0.00 80 1019.2
20260906144605 74 329 1.0 3.0 0.00 0.00 0.00 81 1019.1
20260906143109 74 36 1.0 3.0 0.00 0.00 0.00 81 1018.9
20260906141556 74 0 1.0 3.0 0.00 0.00 0.00 83 1018.9
20260906140049 72 32 1.0 4.0 0.00 0.00 0.00 86 1019.0
20260906134551 71 94 1.0 4.0 0.00 0.00 0.00 88 1018.9
20260906133105 70 338 1.0 3.0 0.00 0.00 0.00 92 1018.8
20260906131546 68 0 0.0 3.0 0.00 0.00 0.00 94 1018.8
20260906130100 67 327 1.0 2.0 0.00 0.00 0.00 94 1018.8
20260906124555 67 344 0.0 2.0 0.00 0.00 0.00 94 1018.7
20260906123050 66 344 0.0 1.0 0.00 0.00 0.00 94 1018.7
20260906121547 66 0 0.0 0.0 0.00 0.00 0.00 93 1018.7
20260906120050 66 0 0.0 0.0 0.00 0.00 0.00 93 1018.7
20260906114559 66 0 0.0 0.0 0.00 0.00 0.00 93 1018.5
20260906113052 65 0 0.0 0.0 0.00 0.00 0.00 92 1018.4
20260906111548 66 0 0.0 0.0 0.00 0.00 0.00 92 1018.5
20260906110047 66 0 0.0 0.0 0.00 0.00 0.00 92 1018.3
20260906104602 67 0 0.0 0.0 0.00 0.00 0.00 91 1018.1
20260906103048 66 0 0.0 0.0 0.00 0.00 0.00 91 1017.9
20260906101547 67 0 0.0 0.0 0.00 0.00 0.00 90 1018.1
20260906100047 67 0 0.0 0.0 0.00 0.00 0.00 90 1018.1
20260906094608 68 0 0.0 0.0 0.00 0.00 0.00 90 1017.8
20260906093117 68 0 0.0 1.0 0.00 0.00 0.00 90 1017.4
20260906091548 68 0 0.0 0.0 0.00 0.00 0.00 89 1017.4
20260906090057 69 0 0.0 2.0 0.00 0.00 0.00 89 1017.3
20260906084549 69 9 0.0 2.0 0.00 0.00 0.00 88 1017.3
20260906083050 69 0 0.0 1.0 0.00 0.00 0.00 88 1017.3
20260906081548 69 9 1.0 3.0 0.00 0.00 0.00 88 1017.4
20260906080045 69 0 0.0 2.0 0.00 0.00 0.00 88 1017.4
20260906074556 69 355 1.0 2.0 0.00 0.00 0.00 87 1017.4
20260906073048 70 0 0.0 2.0 0.00 0.00 0.00 87 1017.4
20260906071548 70 118 0.0 2.0 0.00 0.00 0.00 87 1017.4
20260906070059 70 0 0.0 0.0 0.00 0.00 0.00 87 1017.8
20260906064550 70 0 0.0 0.0 0.00 0.00 0.00 87 1017.8
20260906063050 69 0 0.0 1.0 0.00 0.00 0.00 88 1017.8
20260906061551 69 0 0.0 0.0 0.00 0.00 0.00 87 1017.8
20260906060100 70 0 0.0 0.0 0.00 0.00 0.00 87 1017.7
20260906054551 70 0 0.0 0.0 0.00 0.00 0.00 86 1017.7
20260906053048 71 118 0.0 0.0 0.00 0.00 0.00 86 1017.7
20260906051558 71 0 0.0 0.0 0.00 0.00 0.00 85 1017.7
20260906050106 71 0 0.0 0.0 0.00 0.00 0.00 84 1017.8
20260906044555 72 0 0.0 0.0 0.00 0.00 0.00 83 1017.9
20260906043048 72 0 0.0 0.0 0.00 0.00 0.00 81 1018.0
20260906041547 73 0 0.0 0.0 0.00 0.00 0.00 80 1018.0
20260906034548 74 0 0.0 0.0 0.00 0.00 0.00 77 1018.0
20260906033050 75 0 0.0 0.0 0.00 0.00 0.00 76 1018.1
20260906031556 75 0 0.0 0.0 0.00 0.00 0.00 76 1018.3
20260906030057 75 0 0.0 2.0 0.00 0.00 0.00 76 1018.2
20260906024557 75 0 0.0 1.0 0.00 0.00 0.00 76 1018.1
20260906023047 76 0 0.0 2.0 0.00 0.00 0.00 75 1018.1
20260906021544 76 0 0.0 3.0 0.00 0.00 0.00 75 1017.8
20260906020058 76 0 0.0 2.0 0.00 0.00 0.00 74 1017.4
20260906014625 77 0 0.0 1.0 0.00 0.00 0.00 73 1016.8
20260906013102 77 0 0.0 2.0 0.00 0.00 0.00 73 1016.4
20260906011548 77 0 0.0 2.0 0.00 0.00 0.00 73 1015.9
20260906010051 78 0 0.0 0.0 0.00 0.00 0.00 72 1015.8
20260906004547 79 0 0.0 0.0 0.00 0.00 0.00 70 1015.4
20260906003047 79 0 0.0 2.0 0.00 0.00 0.00 69 1015.4
20260906001548 80 0 0.0 3.0 0.00 0.00 0.00 67 1015.2
20260906000047 81 352 1.0 4.0 0.00 0.00 0.00 66 1015.1
20260905234612 81 303 1.0 4.0 0.00 0.00 0.00 65 1015.4
20260905233049 82 329 2.0 5.0 0.00 0.00 0.00 65 1015.4
20260905231550 82 352 2.0 5.0 0.00 0.00 0.00 64 1015.3
20260905230048 82 26 0.0 9.0 0.00 0.00 0.00 64 1015.4
20260905224548 83 329 2.0 6.0 0.00 0.00 0.00 62 1015.3
20260905223050 83 340 2.0 5.0 0.00 0.00 0.00 64 1014.9
20260905221608 82 318 3.0 10.0 0.00 0.00 0.00 63 1015.0
20260905220047 82 5 3.0 10.0 0.00 0.00 0.00 64 1015.1
20260905214556 82 343 3.0 6.0 0.00 0.00 0.00 65 1015.2
20260905213058 82 31 3.0 8.0 0.00 0.00 0.00 65 1015.3
20260905211546 82 313 2.0 8.0 0.00 0.00 0.00 65 1015.7
20260905210057 82 331 3.0 9.0 0.00 0.00 0.00 66 1015.7
20260905204549 81 325 2.0 6.0 0.00 0.00 0.00 67 1016.0
20260905203055 81 346 3.0 9.0 0.00 0.00 0.00 68 1016.4
20260905201604 81 344 3.0 9.0 0.00 0.00 0.00 68 1016.7
20260905200048 80 340 2.0 8.0 0.00 0.00 0.00 68 1016.9
20260905194555 79 13 1.0 8.0 0.00 0.00 0.00 70 1017.1
20260905193059 79 337 3.0 6.0 0.00 0.00 0.00 70 1017.3
20260905191547 78 5 1.0 6.0 0.00 0.00 0.00 73 1017.5
20260905190058 77 348 1.0 8.0 0.00 0.00 0.00 75 1017.4
20260905184557 77 329 1.0 5.0 0.00 0.00 0.00 74 1017.7